This is the latest recevied weather packets stored in our database for station/object WY7ATH-2. If no packets are shown the sender has not sent any weather packets the latest 10 day(s).
| Time | Temp. | Humidity | Pressure | Rain* | Wind** | Luminosity | Snow |
|---|---|---|---|---|---|---|---|
| 1777834070 | 15.56° C | - | - | 16 mm | 0 m/s | - | - |
| 1777833473 | 18.33° C | - | - | 16 mm | 0 m/s | - | - |
| 1777832279 | 15.56° C | - | - | 16 mm | 0 m/s | - | - |
| 1777831678 | 17.22° C | - | - | 16 mm | 0 m/s | - | - |
| 1777831081 | 15° C | - | - | 17.27 mm | 0 m/s | - | - |
| 1777830484 | 16.11° C | - | - | 17.27 mm | 0 m/s | - | - |
| 1777829887 | 16.67° C | - | - | 17.27 mm | 0 m/s | - | - |
| 1777829290 | 16.67° C | - | - | 17.27 mm | 0 m/s | - | - |
| 1777828693 | 16.11° C | - | - | 17.27 mm | 0 m/s | - | - |
| 1777828093 | 15.56° C | - | - | 17.27 mm | 0 m/s | - | - |
| 1777827497 | 15° C | - | - | 15.24 mm | 0 m/s | - | - |
| 1777826899 | 15.56° C | - | - | 15.24 mm | 0 m/s | - | - |
| 1777824508 | 17.22° C | - | - | 15.24 mm | 0 m/s | - | - |
| 1777822717 | 13.33° C | - | - | 11.68 mm | 0 m/s | - | - |
| 1777820326 | 15.56° C | - | - | 10.67 mm | 0 m/s | - | - |
| 1777819729 | 15.56° C | - | - | 10.67 mm | 0 m/s | - | - |
| 1777817938 | 12.22° C | - | - | 10.67 mm | 0 m/s | - | - |
| 1777817336 | 12.22° C | - | - | 10.67 mm | 0 m/s | - | - |
| 1777816739 | 16.67° C | - | - | 3.3 mm | 0 m/s | - | - |
| 1777816143 | 15° C | - | - | 3.3 mm | 0 m/s | - | - |
| 1777815546 | 15.56° C | - | - | 3.3 mm | 0 m/s | - | - |
| 1777814949 | 12.78° C | - | - | 3.3 mm | 0 m/s | - | - |
| 1777814352 | 8.33° C | - | - | 3.3 mm | 0 m/s | - | - |
| 1777813751 | 8.33° C | - | - | 3.3 mm | 0 m/s | - | - |
| 1777813155 | 9.44° C | - | - | 0 mm | 0 m/s | - | - |
* Rain latest hour (hover to see other rain measurements)
** Current wind speed in m/s (hover to see current wind gust speed)